Torna al catalogo

COSMOS 1791

AttivoMilitarePO
NORAD 17066·PAYLOAD·🇷🇺 Russia

Lanciato Nov 13, 1986 da Plesetsk Cosmodrome

Loading…

Prossimi Passaggi (prossime 24 ore)

TLE

AggiornatoSource: Space-Track

Epoca: Sep 14, 2026, 06:46 UTC

1 17066U 86086A   26257.28213404  .00000043  00000-0  28460-4 0  9995
2 17066  82.9501 195.3694 0040781 352.5200 159.7164 13.76061689   427

Traccia COSMOS 1791 in tempo reale con AllMySat

Download on the App Store